Powrót do katalogu

STARLINK-37677

AktywnyŁącznośćVLEO
NORAD 100051·PAYLOAD·🇺🇸 United States

Wystrzelony Jul 14, 2026 z Cape Canaveral Space Force Station

Loading…

Następne Przeloty (najbliższe 24 godziny)

TLE

ŚwieżeSource: Space-Track

Epoka: Sep 14, 2026, 15:44 UTC

1 A0051U 26161Z   26257.65597513  .00032256  00000-0  96109-3 0  9991
2 A0051  53.1598  25.0012 0002259  97.7489 262.3770 15.34418690  9716

Śledź STARLINK-37677 w czasie rzeczywistym z AllMySat

Download on the App Store